This is the latest recevied weather packets stored in our database for station/object EB1BWO-11. If no packets are shown the sender has not sent any weather packets the latest 10 day(s).
| Time | Temp. | Humidity | Pressure | Rain* | Wind** | Luminosity | Snow |
|---|---|---|---|---|---|---|---|
| 1777933595 | 10.56° C | 82% | 1018.7 hPa | - | - | - | - |
| 1777932695 | 10.56° C | 83% | 1018.9 hPa | - | - | - | - |
| 1777931795 | 10.56° C | 83% | 1019 hPa | - | - | - | - |
| 1777930895 | 10.56° C | 83% | 1019 hPa | - | - | - | - |
| 1777929995 | 10.56° C | 82% | 1019 hPa | - | - | - | - |
| 1777929095 | 10.56° C | 82% | 1019.1 hPa | - | - | - | - |
| 1777928194 | 10.56° C | 82% | 1019.1 hPa | - | - | - | - |
| 1777927294 | 10.56° C | 82% | 1019.1 hPa | - | - | - | - |
| 1777926394 | 11.11° C | 82% | 1019.1 hPa | - | - | - | - |
| 1777925494 | 11.11° C | 82% | 1019 hPa | - | - | - | - |
| 1777924594 | 11.11° C | 82% | 1018.7 hPa | - | - | - | - |
| 1777923694 | 11.11° C | 81% | 1018.6 hPa | - | - | - | - |
| 1777922793 | 11.11° C | 82% | 1018.4 hPa | - | - | - | - |
| 1777921895 | 11.11° C | 81% | 1018.3 hPa | - | - | - | - |
| 1777920993 | 11.11° C | 81% | 1018.2 hPa | - | - | - | - |
| 1777920093 | 11.67° C | 81% | 1018 hPa | - | - | - | - |
| 1777919193 | 12.22° C | 81% | 1018.1 hPa | - | - | - | - |
| 1777918293 | 12.22° C | 80% | 1017.9 hPa | - | - | - | - |
| 1777917393 | 12.78° C | 81% | 1017.7 hPa | - | - | - | - |
| 1777916493 | 12.22° C | 80% | 1018 hPa | - | - | - | - |
| 1777915592 | 12.78° C | 79% | 1017.9 hPa | - | - | - | - |
| 1777914692 | 13.33° C | 79% | 1018 hPa | - | - | - | - |
| 1777913792 | 12.78° C | 79% | 1017.9 hPa | - | - | - | - |
| 1777912892 | 13.33° C | 80% | 1017.8 hPa | - | - | - | - |
| 1777911992 | 13.33° C | 79% | 1017.9 hPa | - | - | - | - |
* Rain since midnight (hover to see other rain measurements)
** Current wind speed in m/s (hover to see current wind gust speed)